Terminal Aerodrome Forecast
Issued by NWS

Home | Current Version | Previous Version | Text Only | Print | Product List | Glossary On
Versions: 1 2 3 4 5 6 7 8 9 10 11 12 13 14 15 16 17 18 19 20 21 22 23 24 25 26 27 28 29 30 31 32 33 34 35 36 37 38 39 40 41 42 43 44 45 46 47 48 49 50
000
FTAK31 PANC 070059 AAA
TAFACD
TAF AMD
PACD 070059Z 0701/0724 15017G25KT P6SM -SHRA SCT015 OVC030
      TEMPO 0701/0705 BKN015
     FM071200 16013G20KT P6SM VCSH SCT008 OVC015
     FM072000 18015G22KT P6SM SCT015 BKN025=

USA.gov is the U.S. government's official web portal to all federal, state and local government web resources and services.